Chollas Lake (167) Station Data

Red Flag Warning: No
Fire Weather Zone: 243
SDGE Region: Metro
Lat/Lon: 32.736/-117.067

Observations

Time Wind Speed/Gust Temp(F) RH Fuel Moist Fuel Temp(F) Dewpt(F) Tmax(F) Tmin(F) Accum Precip 10-min Precip SL Press(mb)
5/24 8:20am 326 2 G 5 61° 85% - - 56° 61.7° 58.5° - - -
5/24 8:10am 315 3 G 5 61° 85% - - 57° 61.7° 58.5° - - -
5/24 8:00am 294 2 G 5 60° 87% - - 57° 61.2° 58.5° - - -
5/24 7:50am 351 2 G 4 60° 88% - - 57° 60.7° 58.5° - - -
5/24 7:40am 350 2 G 4 60° 89% - - 57° 60.4° 58.5° - - -
5/24 7:30am 301 2 G 4 60° 90% - - 57° 60.4° 58.5° - - -
5/24 7:20am 333 2 G 4 60° 91% - - 57° 60.3° 58.5° - - -
5/24 7:10am 9 3 G 5 59° 91% - - 57° 60.2° 58.5° - - -
5/24 7:00am 320 2 G 5 60° 91% - - 57° 60.2° 58.5° - - -
5/24 6:50am 287 2 G 5 60° 92% - - 57° 60.2° 58.5° - - -
5/24 6:40am 300 1 G 2 59° 92% - - 57° 60.2° 58.5° - - -
5/24 6:30am 265 2 G 4 59° 92% - - 57° 60.2° 58.5° - - -
5/24 6:20am 301 2 G 3 59° 92% - - 57° 60.2° 58.5° - - -
5/24 6:10am 285 2 G 6 60° 92% - - 57° 60.2° 58.5° - - -
5/24 6:00am 215 2 G 4 60° 92% - - 57° 60.2° 58.5° - - -
5/24 5:50am 219 2 G 5 60° 92% - - 57° 60.2° 58.5° - - -
5/24 5:40am 243 1 G 2 59° 93% - - 57° 60.1° 58.5° - - -
5/24 5:30am 292 2 G 3 59° 93% - - 57° 60.1° 58.5° - - -
5/24 5:20am 78 1 G 4 59° 93% - - 57° 60.1° 58.5° - - -
5/24 5:10am 162 1 G 4 59° 93% - - 57° 60.1° 58.5° - - -
5/24 5:00am 61 2 G 5 59° 93% - - 57° 60.1° 58.5° - - -
5/24 4:50am 81 2 G 4 59° 94% - - 57° 60.1° 58.5° - - -
5/24 4:40am 79 2 G 5 59° 94% - - 58° 60.1° 58.5° - - -
5/24 4:30am 19 2 G 5 59° 94% - - 58° 60.1° 58.5° - - -
5/24 4:20am 23 3 G 7 59° 94% - - 58° 60.1° 58.5° - - -
5/24 4:10am 22 3 G 5 59° 95% - - 58° 60.1° 58.5° - - -
5/24 4:00am 31 2 G 5 59° 95% - - 58° 60.1° 58.5° - - -
5/24 3:50am 50 1 G 2 59° 95% - - 58° 60.1° 58.5° - - -
5/24 3:40am 357 1 G 2 59° 95% - - 57° 60.1° 58.5° - - -
5/24 3:30am 208 2 G 3 59° 95% - - 57° 60.1° 58.5° - - -
5/24 3:20am 201 2 G 3 59° 94% - - 58° 60.1° 58.5° - - -
5/24 3:10am 239 1 G 3 59° 94% - - 58° 60.1° 58.5° - - -
5/24 3:00am 259 2 G 4 59° 95% - - 58° 60.1° 58.5° - - -
5/24 2:50am 238 2 G 5 59° 95% - - 58° 60.1° 58.5° - - -
5/24 2:40am 176 3 G 4 59° 95% - - 58° 60.1° 58.5° - - -
5/24 2:30am 173 2 G 4 59° 95% - - 58° 60.1° 58.5° - - -
5/24 2:20am 207 1 G 3 59° 95% - - 58° 60.1° 58.5° - - -
5/24 2:10am 274 2 G 5 59° 95% - - 58° 60.1° 58.5° - - -
5/24 2:00am 251 2 G 4 59° 95% - - 58° 60.1° 58.5° - - -
5/24 1:50am 287 1 G 2 59° 95% - - 58° 60.1° 58.5° - - -
5/24 1:40am 322 1 G 4 59° 95% - - 57° 60.1° 58.5° - - -
5/24 1:30am 285 2 G 4 59° 95% - - 58° 60.1° 58.6° - - -
5/24 1:20am 315 2 G 3 59° 95% - - 58° 60.1° 58.8° - - -
5/24 1:10am 269 2 G 3 59° 94% - - 58° 60.1° 58.9° - - -
5/24 1:00am 302 2 G 3 59° 94% - - 58° 60.1° 58.9° - - -
5/24 12:50am 341 2 G 3 60° 94% - - 58° 60.1° 58.9° - - -
5/24 12:40am 309 2 G 3 60° 94% - - 58° 60.1° 58.9° - - -
5/24 12:30am 312 2 G 4 60° 94% - - 58° 60.1° 58.9° - - -
5/24 12:20am 339 1 G 3 59° 94% - - 58° 60° 58.9° - - -
5/24 12:10am 326 1 G 3 59° 94% - - 58° 59.7° 58.9° - - -
5/24 12:00am 296 1 G 2 59° 94% - - 57° 80.2° 57° - - -
5/23 11:50pm 273 2 G 4 59° 93% - - 57° 80.2° 57° - - -
5/23 11:40pm 261 2 G 4 59° 93% - - 57° 80.2° 57° - - -
5/23 11:30pm 268 3 G 4 60° 92% - - 57° 80.2° 57° - - -
5/23 11:20pm 262 3 G 5 60° 91% - - 57° 80.2° 57° - - -
5/23 11:10pm 249 3 G 6 61° 90% - - 58° 80.2° 57° - - -
5/23 11:00pm 240 3 G 6 61° 89% - - 58° 80.2° 57° - - -
5/23 10:50pm 237 2 G 4 61° 89% - - 58° 80.2° 57° - - -
5/23 10:40pm 239 2 G 4 61° 88% - - 58° 80.2° 57° - - -
5/23 10:30pm 250 1 G 3 62° 88% - - 58° 80.2° 57° - - -
5/23 10:20pm 237 1 G 3 62° 87% - - 58° 80.2° 57° - - -
5/23 10:10pm 221 0 G 2 62° 87% - - 58° 80.2° 57° - - -
5/23 10:00pm 223 1 G 2 62° 87% - - 58° 80.2° 57° - - -
5/23 9:50pm 280 1 G 3 62° 86% - - 58° 80.2° 57° - - -
5/23 9:40pm 272 2 G 4 63° 84% - - 58° 80.2° 57° - - -
5/23 9:30pm 252 2 G 4 63° 83% - - 58° 80.2° 57° - - -
5/23 9:20pm 247 2 G 4 64° 82% - - 58° 80.2° 57° - - -
5/23 9:10pm 206 1 G 2 64° 80% - - 58° 80.2° 57° - - -
5/23 9:00pm 181 2 G 3 64° 79% - - 58° 80.2° 57° - - -
5/23 8:50pm 196 2 G 3 65° 78% - - 58° 80.2° 57° - - -
5/23 8:40pm 201 2 G 3 65° 76% - - 58° 80.2° 57° - - -
5/23 8:30pm 200 2 G 4 66° 74% - - 58° 80.2° 57° - - -
5/23 8:20pm 201 2 G 4 67° 71% - - 57° 80.2° 57° - - -
5/23 8:10pm 194 2 G 5 68° 70% - - 58° 80.2° 57° - - -
5/23 8:00pm 200 3 G 5 68° 69% - - 58° 80.2° 57° - - -
5/23 7:50pm 201 3 G 5 69° 67% - - 58° 80.2° 57° - - -
5/23 7:40pm 200 2 G 5 70° 66% - - 58° 80.2° 57° - - -
5/23 7:30pm 203 2 G 4 71° 64% - - 58° 80.2° 57° - - -
5/23 7:20pm 205 3 G 5 71° 63% - - 58° 80.2° 57° - - -
5/23 7:10pm 200 3 G 5 72° 61% - - 58° 80.2° 57° - - -
5/23 7:00pm 199 2 G 4 72° 60% - - 58° 80.2° 57° - - -
5/23 6:50pm 212 3 G 5 72° 60% - - 58° 80.2° 57° - - -
5/23 6:40pm 201 3 G 6 72° 60% - - 58° 80.2° 57° - - -
5/23 6:30pm 206 3 G 6 73° 60% - - 58° 80.2° 57° - - -
5/23 6:20pm 203 4 G 6 74° 58% - - 58° 80.2° 57° - - -
5/23 6:10pm 223 4 G 8 74° 55% - - 57° 80.2° 57° - - -
5/23 6:00pm 232 4 G 8 75° 54% - - 57° 80.2° 57° - - -
5/23 5:50pm 244 4 G 8 75° 54% - - 57° 80.2° 57° - - -
5/23 5:40pm 237 4 G 8 75° 54% - - 57° 80.2° 57° - - -
5/23 5:30pm 248 5 G 8 75° 53% - - 57° 80.2° 57° - - -
5/23 5:20pm 253 5 G 10 76° 53% - - 57° 80.2° 57° - - -
5/23 5:10pm 255 6 G 10 76° 53% - - 58° 80.2° 57° - - -
5/23 5:00pm 273 5 G 10 77° 52% - - 58° 80.2° 57° - - -
5/23 4:50pm 273 6 G 12 77° 51% - - 58° 80.2° 57° - - -
5/23 4:40pm 272 7 G 11 78° 50% - - 58° 80.2° 57° - - -
5/23 4:30pm 260 5 G 10 79° 48% - - 58° 80.2° 57° - - -
5/23 4:20pm 285 4 G 9 79° 46% - - 57° 80° 57° - - -
5/23 4:10pm 285 4 G 7 79° 46% - - 56° 80° 57° - - -
5/23 4:00pm 346 4 G 7 78° 47% - - 56° 79.8° 57° - - -
5/23 3:50pm 309 4 G 8 78° 47% - - 57° 79.8° 57° - - -
5/23 3:40pm 322 3 G 7 78° 48% - - 56° 78.8° 57° - - -
5/23 3:30pm 317 3 G 7 77° 50% - - 57° 78.7° 57° - - -
5/23 3:20pm 327 3 G 7 77° 51% - - 57° 78° 57° - - -
5/23 3:10pm 285 4 G 8 76° 54% - - 58° 77.6° 57° - - -
5/23 3:00pm 302 5 G 11 75° 55% - - 58° 77.3° 57° - - -
5/23 2:50pm 304 4 G 8 74° 57% - - 58° 77.3° 57° - - -
5/23 2:40pm 324 4 G 10 74° 59% - - 58° 77.3° 57° - - -
5/23 2:30pm 338 5 G 8 73° 60% - - 58° 77.3° 57° - - -
5/23 2:20pm 290 6 G 9 72° 63% - - 58° 77.3° 57° - - -
5/23 2:10pm 290 6 G 10 71° 65% - - 58° 77.3° 57° - - -
5/23 2:00pm 275 7 G 13 70° 66% - - 58° 77.3° 57° - - -
5/23 1:50pm 267 7 G 13 71° 66% - - 59° 77.3° 57° - - -
5/23 1:40pm 266 7 G 12 71° 66% - - 59° 77.3° 57° - - -
5/23 1:30pm 256 6 G 10 71° 67% - - 59° 77.3° 57° - - -
5/23 1:20pm 278 6 G 11 70° 68% - - 59° 77.3° 57° - - -
5/23 1:10pm 266 7 G 14 70° 68% - - 59° 77.3° 57° - - -
5/23 1:00pm 282 7 G 14 70° 68% - - 59° 77.3° 57° - - -
5/23 12:50pm 269 6 G 11 70° 69% - - 59° 77.3° 57° - - -
5/23 12:40pm 293 6 G 11 70° 69% - - 59° 77.3° 57° - - -
5/23 12:30pm 283 7 G 11 69° 69% - - 59° 77.3° 57° - - -
5/23 12:20pm 286 7 G 13 69° 69% - - 59° 77.3° 57° - - -
5/23 12:10pm 270 7 G 15 69° 68% - - 58° 77.3° 57° - - -
5/23 12:00pm 300 8 G 15 69° 69% - - 59° 77.3° 57° - - -
5/23 11:50am 296 8 G 16 70° 69% - - 59° 77.3° 57° - - -
5/23 11:40am 286 7 G 12 70° 67% - - 59° 77.3° 57° - - -
5/23 11:30am 271 7 G 12 71° 66% - - 59° 77.3° 57° - - -
5/23 11:20am 256 6 G 11 72° 65% - - 59° 77.3° 57° - - -
5/23 11:10am 251 6 G 11 72° 64% - - 59° 77.3° 57° - - -
5/23 11:00am 239 7 G 11 73° 62% - - 60° 77.3° 57° - - -
5/23 10:50am 227 6 G 11 74° 62% - - 60° 77.3° 57° - - -
5/23 10:40am 220 6 G 11 74° 61% - - 60° 77.3° 57° - - -
5/23 10:30am 219 6 G 10 75° 59% - - 59° 77.3° 57° - - -
5/23 10:20am 236 5 G 9 75° 55% - - 58° 77.3° 57° - - -
5/23 10:10am 238 4 G 9 75° 54% - - 57° 77.3° 57° - - -
5/23 10:00am 235 4 G 7 75° 54% - - 57° 77.3° 57° - - -
5/23 9:50am 230 3 G 8 76° 53% - - 57° 77.3° 57° - - -
5/23 9:40am 250 1 G 3 75° 53% - - 56° 76.3° 57° - - -
5/23 9:30am 276 1 G 4 75° 54% - - 57° 75.3° 57° - - -
5/23 9:20am 65 1 G 3 73° 58% - - 57° 75.1° 57° - - -
5/23 9:10am 59 2 G 3 71° 62% - - 57° 72° 57° - - -
5/23 9:00am 63 1 G 3 70° 65% - - 58° 71.3° 57° - - -
5/23 8:50am 26 1 G 4 68° 68% - - 58° 69.2° 57° - - -
5/23 8:40am 60 2 G 4 67° 72% - - 58° 67.9° 57° - - -
5/23 8:30am 67 1 G 3 66° 76% - - 58° 66.9° 57° - - -
5/23 8:20am 25 1 G 4 65° 78% - - 58° 65.1° 57° - - -
5/23 8:10am 54 1 G 3 63° 83% - - 58° 64.7° 57° - - -
5/23 8:00am 45 2 G 4 62° 86% - - 58° 62.9° 57° - - -
5/23 7:50am 29 3 G 6 60° 91% - - 57° 61.2° 57° - - -
5/23 7:40am 49 3 G 6 59° 92% - - 57° 60° 57° - - -
5/23 7:30am 36 3 G 5 59° 94% - - 57° 59.9° 57° - - -
5/23 7:20am 16 3 G 5 59° 94% - - 57° 59.7° 57° - - -
5/23 7:10am 336 1 G 4 59° 94% - - 57° 59.7° 57° - - -
5/23 7:00am 356 2 G 3 59° 95% - - 58° 59.7° 57° - - -
5/23 6:50am 0 2 G 3 59° 95% - - 57° 59.4° 57° - - -
5/23 6:40am 332 2 G 4 59° 95% - - 57° 59.4° 57° - - -
5/23 6:30am 321 2 G 4 59° 96% - - 58° 59.4° 57° - - -
5/23 6:20am 329 1 G 4 59° 96% - - 58° 59.3° 57° - - -
5/23 6:10am 345 1 G 3 58° 97% - - 57° 59.3° 57° - - -
5/23 6:00am 355 2 G 4 58° 97% - - 57° 59.3° 57° - - -